TimeCDT,TemperatureF,Dew PointF,Humidity,Sea Level PressureIn,VisibilityMPH,Wind Direction,Wind SpeedMPH,Gust SpeedMPH,PrecipitationIn,Events,Conditions,WindDirDegrees,DateUTC
12:55 AM,70.0,69.1,97,29.90,4.0,South,4.6,-,N/A,,Clear,180,2013-08-06 05:55:00
1:15 AM,69.8,69.8,100,29.90,2.5,South,3.5,-,N/A,,Clear,180,2013-08-06 06:15:00
1:23 AM,69.8,68.0,94,29.89,0.8,Calm,Calm,-,N/A,,Clear,0,2013-08-06 06:23:00
1:36 AM,69.8,68.0,94,29.89,2.0,Calm,Calm,-,N/A,,Clear,0,2013-08-06 06:36:00
1:55 AM,69.1,68.0,96,29.88,1.2,Calm,Calm,-,N/A,,Clear,0,2013-08-06 06:55:00
2:00 AM,69.8,68.0,94,29.89,0.8,Calm,Calm,-,N/A,,Mist,0,2013-08-06 07:00:00
2:07 AM,66.2,66.2,100,29.88,0.2,Calm,Calm,-,N/A,Fog,Fog,0,2013-08-06 07:07:00
2:55 AM,66.9,66.9,100,29.86,0.2,Calm,Calm,-,N/A,Fog,Fog,0,2013-08-06 07:55:00
3:55 AM,66.0,66.0,100,29.85,0.2,Calm,Calm,-,N/A,Fog,Fog,0,2013-08-06 08:55:00
4:55 AM,68.0,66.9,96,29.83,0.2,SE,4.6,-,N/A,Fog,Fog,140,2013-08-06 09:55:00
5:55 AM,68.0,68.0,100,29.86,0.5,South,4.6,-,N/A,Fog,Fog,170,2013-08-06 10:55:00
6:55 AM,69.1,69.1,100,29.90,0.2,South,6.9,-,N/A,Fog,Fog,190,2013-08-06 11:55:00
7:55 AM,71.1,70.0,96,29.91,0.2,South,5.8,-,N/A,Fog,Fog,170,2013-08-06 12:55:00
8:21 AM,71.6,71.6,100,29.93,0.8,SSW,5.8,-,N/A,,Overcast,210,2013-08-06 13:21:00
8:31 AM,71.6,71.6,100,29.92,1.2,SSW,5.8,-,N/A,,Overcast,200,2013-08-06 13:31:00
8:55 AM,72.0,72.0,100,29.90,1.0,Calm,Calm,-,N/A,,Overcast,0,2013-08-06 13:55:00
9:17 AM,73.4,71.6,94,29.90,2.5,Calm,Calm,-,N/A,,Overcast,0,2013-08-06 14:17:00
9:30 AM,75.2,71.6,89,29.90,4.0,NW,3.5,-,N/A,,Overcast,320,2013-08-06 14:30:00
9:46 AM,75.2,71.6,89,29.90,5.0,NNW,6.9,-,N/A,,Overcast,340,2013-08-06 14:46:00
9:55 AM,78.1,73.0,84,29.89,5.0,North,5.8,-,N/A,,Haze,360,2013-08-06 14:55:00
10:14 AM,78.8,73.4,83,29.90,6.0,North,5.8,-,N/A,,Haze,350,2013-08-06 15:14:00
10:22 AM,80.6,73.4,79,29.90,7.0,North,6.9,-,N/A,,Scattered Clouds,10,2013-08-06 15:22:00
10:55 AM,82.9,73.0,72,29.88,9.0,NE,4.6,-,N/A,,Clear,40,2013-08-06 15:55:00
11:55 AM,87.1,73.0,63,29.88,10.0,Calm,Calm,-,N/A,,Clear,0,2013-08-06 16:55:00
12:55 PM,89.1,72.0,57,29.87,10.0,Variable,4.6,-,N/A,,Mostly Cloudy,0,2013-08-06 17:55:00
1:55 PM,87.1,73.9,65,29.85,10.0,South,9.2,-,N/A,,Partly Cloudy,180,2013-08-06 18:55:00
2:55 PM,89.1,73.0,59,29.83,10.0,South,10.4,-,N/A,,Partly Cloudy,170,2013-08-06 19:55:00
3:55 PM,88.0,71.1,57,29.83,10.0,South,9.2,-,N/A,,Clear,180,2013-08-06 20:55:00
4:55 PM,89.1,70.0,53,29.83,10.0,SSW,6.9,-,N/A,,Clear,200,2013-08-06 21:55:00
5:55 PM,89.1,70.0,53,29.83,10.0,South,5.8,-,N/A,,Clear,190,2013-08-06 22:55:00
6:55 PM,87.1,72.0,61,29.82,10.0,SSW,4.6,-,N/A,,Clear,210,2013-08-06 23:55:00
7:55 PM,82.0,72.0,71,29.82,10.0,South,3.5,-,N/A,,Partly Cloudy,190,2013-08-07 00:55:00
8:55 PM,77.0,71.1,82,29.85,10.0,SSE,3.5,-,N/A,,Clear,150,2013-08-07 01:55:00
9:55 PM,73.9,71.1,91,29.87,10.0,SSE,4.6,-,N/A,,Clear,160,2013-08-07 02:55:00
10:55 PM,75.0,72.0,90,29.86,10.0,South,5.8,-,N/A,,Clear,190,2013-08-07 03:55:00
11:55 PM,75.0,71.1,87,29.86,10.0,South,3.5,-,N/A,,Clear,170,2013-08-07 04:55:00